Tracking 31027 objects as of 19-Jul-2025
HD Live streaming from Space Station
objects crossing your sky now

DELTA 1 DEB

Track DELTA 1 DEB now!
10-day predictions


NORAD ID: 26833
Int'l Code: 1975-052KM
Perigee: 1,090.0 km
Apogee: 1,659.4 km
Inclination: 99.7 °
Period: 113.1 minutes
Semi major axis: 7745 km
RCS: 0.01 m2 (small)
Launch date: June 12, 1975
Source: United States (US)
Launch site: AIR FORCE WESTERN TEST RANGE (AFWTR)

Note: This is SATELLITE DEBRIS
Your satellite tracking list
THORAD DELTA 1 DEB
Track 1 satellite(s)




NASA's NSSDC Master Catalog

Two Line Element Set (TLE):
1 26833U 75052KM  25198.40663291 -.00000062  00000-0 -91994-4 0  9993
2 26833  99.6896 168.5717 0367526 331.8613 181.4904 12.73536474228506
Source of the keplerian elements: AFSPC